Home > Weather > Tartu > Past weeks

Flag for Estonia Weather for the Past 2 Weeks in Tartu, Estonia

Now
61 °F

Refreshingly cool.


Feels Like: 61 °F
Forecast: 39 / 68 °F
Wind: 10 mph from Northeast

Location: Tartu/Ulenurme

Current Time: May 6, 2016 at 10:37:00 PM

Latest Report: May 6, 2016 at 9:50 PM


Visibility: N/A

Pressure: 30.18 "Hg

Humidity: 36%

Dew Point: 34 °F

Location of TartuLocation

Historic Weather in Tartu — Graph

°F

Tartu Temperature Yesterday

Maximum temperature yesterday: 70 °F (at 1:50 PM)
Minimum temperature yesterday: 41 °F (at 3:50 AM)
Average temperature yesterday: 58 °F

High & Low Weather Summary for the Past Weeks

 TemperatureHumidityPressure
High70 °F (May 5, 1:50 PM)93% (Apr 22, 5:50 AM)30.36 "Hg (Apr 22, 5:50 AM)
Low30 °F (Apr 24, 12:50 AM)21% (May 6, 5:50 PM)29.50 "Hg (Apr 24, 11:50 PM)
Average47 °F67%29.98 "Hg
* Reported Apr 21 8:50 PM — May 6 8:50 PM, Tartu, Weather by CustomWeather, © 2016

Note: Actual official high and low records may vary slightly from our data, if they occured in-between our weather recording intervals... More about our weather records

Advertising

Tartu Weather History for the Previous 24 Hours

Scroll right to see more
 ConditionsComfort  
Time TempWeatherWind HumidityBarometerVisibility
8:50 PM
Fri, May 6
61 °FRefreshingly cool.6 mph45%30.15 "HgN/A
7:50 PM68 °FMild.5 mph26%30.15 "HgN/A
6:50 PM70 °FSunny.2 mph21%30.15 "Hg10 mi
5:50 PM70 °FPassing clouds.6 mph21%30.15 "HgN/A
4:50 PM70 °FSunny.3 mph25%30.18 "Hg10 mi
3:50 PM70 °FSunny.3 mph27%30.18 "Hg10 mi
2:50 PM70 °FPassing clouds.7 mph27%30.18 "HgN/A
1:50 PM68 °FPassing clouds.5 mph30%30.21 "HgN/A
12:50 PM68 °FPassing clouds.5 mph30%30.21 "HgN/A
11:50 AM66 °FSunny.3 mph28%30.21 "Hg10 mi
10:50 AM63 °FPassing clouds.5 mph30%30.21 "HgN/A
9:50 AM61 °FSunny.2 mph36%30.24 "Hg10 mi
8:50 AM57 °FSunny.3 mph48%30.21 "Hg10 mi
7:50 AM54 °FCool.2 mph54%30.21 "HgN/A
6:50 AM46 °FCool.3 mph82%30.21 "HgN/A
5:50 AM41 °FQuite cool.2 mph81%30.21 "HgN/A
4:50 AM39 °FChilly.2 mph87%30.21 "HgN/A
3:50 AM43 °FQuite cool.3 mph76%30.24 "HgN/A
2:50 AM45 °FQuite cool.2 mph76%30.24 "HgN/A
1:50 AM46 °FCool.2 mph66%30.21 "HgN/A
12:50 AM52 °FCool.1 mph54%30.21 "HgN/A
11:50 PM
Thu, May 5
55 °FRefreshingly cool.3 mph47%30.21 "HgN/A
10:50 PM57 °FRefreshingly cool.1 mph48%30.21 "HgN/A
Weather by CustomWeather, © 2016

See weather overviewHow to use our weather pages